Wind_Speed
63 61 60 58 55 55 57 54 59 50 51 44 39 37 44 52 44 45 45 46 44 45 45 48 49 50 50 51 52 54 51 54 59 63 68 72 77 80 86 92 97 102 94 86
67 65 65 64 63 63 63 58 56 58 55 46 51 41 49 47 45 43 46 44 45 46 47 49 50 51 51 50 51 50 52 56 60 64 69 74 77 81 87 92 99 98 87 80
70 67 68 73 72 66 63 59 56 61 52 56 50 44 45 45 42 46 45 45 46 47 48 50 52 53 52 51 50 50 54 57 61 65 71 74 77 82 87 93 93 88 80 72
72 71 76 74 69 65 65 62 57 56 53 54 49 48 45 39 42 47 46 45 47 48 50 52 54 55 51 50 49 52 56 59 62 67 71 73 77 82 88 91 85 78 75 63
68 80 80 76 69 66 65 58 57 55 55 49 45 43 37 37 42 44 44 45 46 49 51 53 55 52 51 50 49 53 56 59 63 67 70 72 77 83 88 87 76 71 71 58
54 59 65 62 64 68 66 66 56 52 51 44 43 42 33 42 42 43 43 44 46 49 52 54 51 50 49 47 50 53 57 59 63 67 69 73 78 82 88 82 69 66 62 55
54 49 53 58 60 61 62 57 52 53 51 46 42 38 37 39 42 41 44 45 47 51 51 51 51 49 47 48 50 54 56 60 63 66 69 74 78 83 87 74 64 62 51 46
50 53 47 46 48 50 50 52 55 50 45 42 37 34 37 38 38 42 44 46 48 48 49 49 48 49 49 50 51 53 58 61 63 66 69 74 78 82 79 65 59 58 44 36
46 51 47 43 42 45 46 49 47 50 50 47 36 36 39 45 41 43 46 47 46 46 48 45 47 49 48 48 52 55 59 60 63 66 70 75 78 78 68 59 56 54 41 33
44 37 41 38 39 41 42 45 49 46 47 44 41 41 44 39 41 45 44 44 44 46 45 46 48 46 46 50 54 57 59 60 63 66 70 75 76 70 59 55 53 50 40 32
39 36 40 37 39 42 42 37 43 48 45 42 41 41 37 38 42 43 43 43 44 43 44 47 48 46 48 52 55 57 57 60 63 67 70 72 68 61 53 52 51 47 38 32
35 35 37 35 34 36 39 37 36 36 38 38 38 38 38 41 44 44 43 44 44 44 44 47 45 46 49 53 56 57 58 60 63 67 69 67 59 52 52 51 51 46 38 32
37 37 36 37 37 36 37 38 39 37 36 37 40 43 42 43 43 43 43 44 42 42 45 44 45 47 51 53 55 55 57 60 63 67 66 59 52 43 44 53 50 45 35 34
36 36 35 35 36 39 38 39 41 42 41 41 42 43 45 44 43 44 43 40 41 43 43 44 46 49 52 54 53 56 57 60 63 65 60 53 43 41 43 44 44 36 33 32
41 40 35 35 45 39 37 37 38 39 40 41 41 46 46 44 45 42 40 42 44 43 44 45 48 49 52 51 54 55 57 60 62 58 51 44 38 40 43 45 44 37 28 30
38 39 36 36 41 38 39 38 38 37 41 43 45 45 44 44 42 40 42 43 42 43 44 46 47 50 50 52 55 54 56 58 55 51 45 36 37 39 42 44 45 35 27 27
37 39 33 30 29 27 37 42 35 34 36 39 40 40 41 42 38 40 42 41 42 44 45 46 49 48 51 53 53 54 54 52 48 44 37 32 36 37 40 42 43 32 25 25
38 35 39 42 38 40 37 30 33 36 35 36 37 36 36 37 40 41 41 41 43 44 45 47 48 50 51 50 51 50 47 45 41 36 30 33 35 36 39 41 42 29 24 25
37 37 38 39 41 44 44 38 35 39 38 35 33 34 36 39 40 40 41 42 43 45 45 47 49 49 48 48 46 43 41 38 34 29 31 34 34 35 38 39 40 29 21 22
48 46 39 42 44 39 38 41 41 35 31 31 33 35 36 37 38 40 41 42 43 44 46 48 47 47 45 42 39 35 32 30 29 30 34 34 34 35 36 38 38 27 20 21
44 44 43 42 40 37 33 30 29 30 31 32 34 35 36 37 38 39 41 42 43 45 45 44 44 42 39 35 32 30 30 31 33 33 33 33 33 34 35 36 36 27 19 19
17 19 21 22 23 23 24 26 28 29 30 31 33 35 36 37 38 40 42 42 42 43 42 40 37 34 31 30 30 31 31 32 32 32 32 33 33 32 32 33 34 29 19 18
15 16 19 20 22 24 25 27 28 29 30 31 33 35 38 39 40 40 40 41 41 39 36 32 30 28 29 30 32 34 35 35 35 34 34 33 32 31 31 31 31 28 19 18
12 14 16 18 20 22 24 26 27 30 32 34 36 37 38 39 40 41 40 37 34 31 29 28 29 31 34 36 37 38 37 36 34 33 33 31 31 30 29 30 30 29 20 17
10 15 19 21 23 26 28 28 31 33 34 35 36 38 38 38 37 35 33 31 30 30 31 34 36 38 40 41 39 37 37 36 34 33 33 33 32 29 29 30 30 29 21 18
20 21 22 24 26 28 30 32 33 34 35 35 35 35 34 32 32 31 31 32 33 35 38 40 42 43 42 39 38 38 37 36 35 35 35 34 32 31 31 31 29 28 21 18
26 28 28 29 30 31 32 33 33 34 34 34 34 33 33 33 33 34 36 38 40 42 44 44 43 41 41 40 40 39 39 39 38 38 37 35 35 34 31 28 27 24 19 17
Wind_Direction
244 249 249 247 247 250 257 261 260 265 268 272 275 270 272 274 276 278 285 291 290 294 293 297 299 302 303 304 305 308 310 314 316 318 320 321 322 323 324 326 326 329 331 331
241 244 247 249 251 252 256 261 270 269 269 269 270 262 266 273 277 282 287 288 291 293 295 296 299 302 303 304 307 308 313 315 316 318 320 321 322 324 326 326 329 331 331 332
241 241 244 249 254 256 261 264 271 270 274 271 271 267 264 267 274 278 283 288 290 291 292 296 298 301 302 303 305 310 313 314 316 317 319 322 323 326 326 328 331 331 332 333
246 247 247 250 255 260 262 266 270 269 268 272 269 266 264 271 272 278 281 284 288 290 292 295 298 300 301 302 304 309 311 314 316 317 320 322 325 326 327 331 331 330 331 335
248 245 252 254 258 264 267 269 271 271 271 274 258 254 259 269 273 277 281 283 287 290 292 295 298 299 300 300 303 308 311 313 315 318 321 324 325 327 329 332 330 331 331 336
264 260 257 261 263 265 268 268 275 272 268 262 254 259 262 267 279 279 279 285 289 290 292 295 297 297 298 299 304 308 310 313 316 318 322 324 325 327 330 331 330 332 330 333
263 268 265 262 265 266 266 272 273 269 267 258 254 259 264 271 277 278 279 285 288 292 292 294 296 297 297 302 305 308 311 314 316 319 323 324 326 328 331 330 331 331 330 326
262 261 268 275 272 273 278 272 268 270 265 260 261 263 266 271 270 276 280 284 288 288 290 294 294 294 297 302 306 309 312 314 317 320 322 324 326 330 331 328 330 331 331 323
258 261 262 272 269 271 269 267 266 264 262 260 253 257 262 266 271 275 280 284 286 287 290 291 294 296 298 303 307 310 312 315 318 320 322 323 328 330 328 327 330 331 331 322
252 259 257 266 269 267 267 265 260 260 258 257 257 260 268 271 274 279 283 286 285 288 289 289 293 296 300 304 307 310 313 316 317 320 322 326 330 328 325 326 329 330 329 324
246 254 254 259 260 262 265 261 251 252 256 261 266 267 266 271 276 283 287 285 287 286 286 291 293 295 300 304 307 311 313 315 317 320 323 328 326 324 324 326 329 331 326 323
240 249 260 256 256 260 256 253 250 254 258 259 260 263 267 272 279 284 287 286 286 284 289 293 292 296 300 304 307 310 312 314 317 320 325 327 324 324 325 329 330 330 326 323
238 244 252 259 264 264 264 260 255 252 254 258 262 266 271 275 281 286 285 287 283 283 290 290 292 296 300 303 306 308 310 313 317 321 325 324 322 322 325 329 330 329 325 324
247 252 258 260 263 266 265 265 263 261 259 260 265 274 275 279 282 283 285 281 282 286 287 290 294 296 300 303 305 307 310 313 318 323 323 321 320 322 326 328 328 323 317 321
252 254 254 245 259 267 267 268 269 270 269 268 267 269 278 279 281 282 280 282 284 283 285 290 293 296 300 302 304 307 311 317 321 321 318 319 319 324 328 331 331 326 316 321
241 252 254 257 266 269 268 266 268 267 266 270 270 272 275 278 278 275 277 279 279 282 286 289 293 297 299 301 304 308 314 319 319 317 317 316 321 326 330 332 332 325 315 317
245 249 260 270 273 271 260 273 266 263 264 267 269 270 273 272 268 273 276 277 279 282 286 290 295 296 299 302 307 312 316 317 314 313 314 313 321 325 331 332 332 324 314 316
241 248 245 258 268 281 277 267 264 270 274 273 268 264 263 264 269 271 272 275 278 282 287 291 294 297 300 305 310 313 314 311 309 311 311 316 321 326 331 333 334 325 315 318
254 251 260 268 268 272 278 270 270 272 271 267 261 260 263 264 266 268 272 275 280 286 289 293 296 299 304 308 310 310 307 306 307 307 312 317 322 327 330 333 334 323 311 314
249 253 252 258 263 266 264 266 267 262 255 256 256 258 259 261 264 268 273 280 284 288 292 295 299 303 305 307 306 304 305 307 308 307 311 316 320 324 328 331 334 324 309 314
247 252 255 257 262 262 257 250 248 247 247 249 252 254 257 262 267 273 279 283 286 291 295 299 301 301 301 300 301 301 303 304 306 307 310 315 317 321 325 329 331 325 305 311
245 244 244 243 241 240 239 239 241 243 245 248 252 258 264 269 273 277 282 287 292 294 296 296 296 296 297 298 300 301 301 303 303 307 309 310 311 316 319 325 328 324 302 307
214 218 222 223 225 228 233 237 242 247 252 257 262 266 270 275 281 287 290 291 291 291 291 291 293 295 297 298 298 298 299 300 302 303 304 304 307 309 312 319 322 322 300 299
220 228 234 238 242 245 249 252 256 259 263 267 271 276 282 286 287 287 287 287 286 287 287 288 290 292 295 299 300 299 300 301 301 300 300 299 302 303 305 313 318 320 299 288
250 247 248 252 257 260 264 270 273 276 278 282 283 283 283 283 284 284 284 285 285 286 286 288 290 293 295 296 297 297 298 298 298 297 297 297 298 297 299 306 311 312 296 281
294 288 287 286 285 284 283 282 281 281 281 281 282 283 284 284 285 285 285 285 286 286 288 290 292 293 294 295 295 295 295 294 294 293 292 292 292 292 295 298 301 301 288 271
285 283 281 280 279 278 278 278 279 280 281 282 283 284 284 284 283 283 283 283 284 285 288 291 291 292 293 293 293 293 292 291 290 289 288 288 288 288 288 289 286 286 276 263
Height
5626 5629 5631 5635 5638 5642 5640 5645 5640 5651 5649 5657 5651 5650 5647 5643 5642 5642 5640 5637 5634 5631 5627 5623 5618 5614 5608 5602 5596 5589 5582 5574 5566 5556 5545 5534 5522 5509 5494 5478 5461 5443 5424 5405
5610 5613 5614 5616 5621 5625 5628 5632 5634 5636 5636 5643 5638 5635 5633 5629 5630 5631 5628 5626 5623 5620 5616 5611 5607 5602 5596 5590 5584 5578 5570 5562 5553 5543 5533 5522 5510 5496 5480 5464 5446 5430 5412 5396
5593 5598 5598 5599 5608 5613 5617 5621 5625 5621 5631 5624 5623 5622 5619 5617 5620 5619 5617 5614 5611 5608 5604 5600 5595 5590 5585 5579 5573 5566 5559 5551 5541 5532 5522 5510 5498 5484 5468 5451 5433 5418 5404 5389
5579 5582 5579 5592 5596 5600 5601 5607 5609 5609 5611 5609 5608 5608 5607 5607 5608 5606 5605 5603 5600 5596 5592 5588 5584 5578 5573 5567 5561 5554 5547 5539 5530 5520 5509 5498 5486 5473 5457 5437 5422 5408 5396 5382
5562 5565 5569 5579 5585 5588 5589 5594 5593 5593 5592 5593 5594 5592 5594 5597 5595 5595 5593 5591 5588 5584 5581 5576 5571 5566 5561 5555 5549 5542 5535 5527 5518 5508 5497 5486 5475 5461 5445 5428 5413 5398 5386 5376
5549 5550 5551 5570 5574 5575 5577 5568 5583 5577 5577 5580 5579 5578 5585 5581 5583 5582 5581 5578 5576 5573 5569 5564 5559 5555 5550 5544 5537 5530 5523 5514 5505 5496 5486 5475 5464 5450 5435 5419 5405 5391 5377 5367
5540 5538 5542 5554 5555 5557 5559 5570 5564 5560 5563 5565 5567 5568 5570 5571 5571 5570 5568 5566 5564 5561 5557 5552 5548 5544 5538 5532 5525 5518 5510 5502 5493 5484 5474 5464 5451 5438 5425 5411 5398 5386 5372 5361
5528 5529 5534 5542 5541 5544 5549 5545 5545 5548 5549 5551 5553 5555 5557 5558 5558 5557 5555 5554 5552 5549 5545 5541 5537 5532 5526 5520 5512 5505 5498 5490 5481 5472 5462 5451 5440 5427 5414 5402 5390 5379 5367 5357
5515 5521 5530 5528 5528 5530 5529 5531 5533 5535 5536 5538 5541 5543 5544 5544 5544 5543 5543 5541 5539 5536 5532 5529 5524 5519 5513 5507 5500 5493 5486 5478 5469 5459 5449 5439 5428 5416 5405 5394 5384 5373 5362 5354
5499 5512 5517 5518 5517 5517 5517 5519 5521 5523 5524 5525 5528 5530 5531 5531 5531 5531 5530 5528 5525 5523 5519 5515 5511 5506 5500 5494 5488 5481 5474 5466 5458 5448 5437 5425 5415 5405 5394 5387 5376 5365 5356 5349
5489 5498 5502 5504 5504 5505 5506 5508 5510 5511 5513 5515 5516 5517 5517 5518 5518 5518 5516 5514 5512 5509 5506 5502 5498 5493 5488 5482 5476 5470 5463 5455 5447 5437 5427 5415 5401 5395 5385 5375 5368 5359 5349 5342
5482 5484 5484 5489 5492 5495 5497 5498 5498 5500 5502 5503 5504 5504 5505 5506 5505 5505 5503 5501 5498 5496 5493 5489 5485 5481 5476 5470 5464 5458 5452 5444 5436 5427 5416 5407 5398 5381 5371 5366 5358 5348 5340 5334
5468 5470 5473 5477 5480 5483 5484 5487 5488 5489 5489 5490 5491 5492 5493 5493 5493 5491 5489 5487 5485 5483 5480 5476 5473 5469 5464 5459 5454 5448 5441 5434 5426 5416 5407 5397 5388 5381 5373 5354 5347 5341 5333 5327
5456 5459 5463 5467 5469 5470 5472 5474 5475 5476 5477 5478 5479 5480 5480 5481 5480 5478 5476 5474 5473 5470 5467 5464 5460 5457 5452 5448 5442 5437 5430 5423 5415 5406 5397 5387 5379 5372 5364 5357 5347 5336 5328 5323
5447 5449 5453 5457 5459 5458 5461 5462 5463 5465 5467 5468 5469 5469 5468 5467 5466 5464 5463 5461 5460 5457 5454 5451 5448 5445 5440 5436 5431 5424 5418 5411 5403 5395 5387 5379 5372 5364 5356 5347 5338 5330 5325 5318
5434 5438 5441 5444 5446 5448 5449 5451 5452 5453 5454 5455 5455 5455 5454 5453 5452 5451 5450 5448 5446 5444 5442 5440 5436 5432 5428 5424 5419 5413 5407 5400 5393 5385 5377 5370 5364 5357 5349 5340 5332 5324 5319 5315
5422 5428 5428 5430 5434 5437 5440 5439 5440 5441 5442 5442 5441 5440 5440 5440 5440 5439 5437 5436 5434 5433 5430 5427 5424 5420 5416 5412 5406 5401 5394 5387 5381 5376 5369 5363 5357 5350 5343 5335 5326 5318 5314 5309
5412 5415 5420 5422 5423 5425 5427 5427 5427 5428 5428 5428 5428 5427 5428 5428 5427 5427 5425 5424 5423 5421 5418 5415 5412 5409 5404 5400 5395 5389 5382 5377 5371 5366 5361 5356 5350 5344 5336 5328 5321 5314 5309 5304
5399 5403 5406 5409 5411 5413 5414 5415 5415 5416 5416 5416 5416 5416 5416 5416 5415 5415 5414 5413 5411 5409 5406 5403 5400 5396 5392 5388 5382 5377 5373 5368 5363 5359 5354 5349 5343 5337 5331 5323 5315 5309 5305 5301
5390 5393 5395 5398 5400 5401 5402 5404 5404 5404 5404 5404 5404 5404 5404 5404 5404 5403 5402 5401 5399 5397 5394 5391 5388 5384 5380 5375 5371 5367 5363 5359 5355 5351 5347 5342 5337 5331 5325 5318 5311 5305 5301 5298
5378 5380 5383 5386 5388 5389 5390 5391 5392 5393 5393 5392 5393 5393 5394 5393 5393 5392 5391 5389 5387 5384 5381 5378 5375 5371 5368 5365 5361 5358 5355 5351 5348 5343 5338 5334 5330 5325 5319 5313 5307 5301 5298 5295
5367 5369 5372 5374 5376 5378 5379 5380 5381 5382 5383 5383 5383 5384 5383 5383 5382 5380 5378 5377 5374 5372 5369 5366 5363 5360 5358 5355 5352 5349 5346 5342 5338 5334 5330 5327 5323 5318 5314 5309 5303 5298 5294 5292
5363 5364 5366 5367 5368 5369 5371 5372 5373 5373 5374 5374 5374 5374 5373 5372 5370 5369 5367 5364 5362 5359 5356 5354 5352 5349 5347 5345 5342 5339 5335 5331 5328 5325 5321 5319 5316 5312 5308 5304 5299 5295 5290 5288
5361 5361 5362 5363 5364 5365 5365 5366 5366 5365 5366 5366 5365 5363 5362 5360 5359 5357 5354 5352 5349 5347 5345 5343 5341 5340 5337 5335 5332 5328 5324 5321 5317 5315 5312 5310 5308 5305 5301 5297 5294 5290 5286 5284
5358 5358 5359 5358 5359 5359 5358 5357 5356 5356 5355 5354 5353 5352 5350 5348 5346 5344 5342 5339 5338 5336 5335 5333 5331 5329 5326 5323 5319 5315 5312 5309 5307 5305 5303 5301 5298 5296 5293 5291 5288 5285 5282 5280
5353 5352 5350 5349 5349 5348 5348 5347 5347 5345 5344 5342 5340 5338 5337 5335 5333 5332 5330 5329 5327 5326 5324 5321 5319 5316 5313 5309 5306 5303 5300 5298 5296 5294 5292 5290 5288 5287 5285 5283 5281 5278 5276 5275
5344 5343 5342 5341 5340 5339 5338 5336 5335 5334 5332 5330 5328 5327 5325 5324 5323 5321 5320 5318 5316 5314 5311 5308 5306 5302 5299 5296 5293 5291 5288 5286 5284 5282 5281 5279 5277 5276 5274 5273 5272 5270 5269 5269